When you browse on this site, cookies collect data to enhance your experience and personalize the content and advertising you see.
Visit our Privacy Policy to learn more. By continuing to use the site, you agree to this use of cookies and data.
  • Em Portugal
  • Lista de países
  • Para 7 dias
  • Temperatura da água
  • Mapas de satélite
  • Mapa do tempo
  • Widgets de tempo
  • user-avatar
    Iniciar Sessão

    Previsão horária em Djelfa

    Hoje, 22 Maio, Quarta-feira

    Tempo Temperatura Precipitação Vento Pressão Humidade
    00:00 +18°C° 0.1 mm 1 m/s 664 mmHg 56%
    01:00 +16°C° 0 mm 1 m/s 664 mmHg 59%
    02:00 +15°C° 0 mm 1 m/s 663 mmHg 63%
    03:00 +15°C° 0 mm 1 m/s 663 mmHg 66%
    04:00 +15°C° 0 mm 1 m/s 664 mmHg 63%
    05:00 +16°C° 0 mm 1 m/s 664 mmHg 60%
    06:00 +16°C° 0 mm 2 m/s 664 mmHg 57%
    07:00 +17°C° 0 mm 2 m/s 665 mmHg 51%
    08:00 +19°C° 0 mm 3 m/s 665 mmHg 44%
    09:00 +20°C° 0 mm 3 m/s 666 mmHg 38%
    10:00 +21°C° 0 mm 3 m/s 666 mmHg 33%
    11:00 +22°C° 0 mm 4 m/s 666 mmHg 28%
    12:00 +23°C° 0 mm 4 m/s 666 mmHg 23%
    13:00 +25°C° 0 mm 4 m/s 666 mmHg 22%
    14:00 +25°C° 0 mm 4 m/s 666 mmHg 21%
    15:00 +26°C° 0 mm 5 m/s 666 mmHg 19%
    16:00 +25°C° 0 mm 5 m/s 666 mmHg 21%
    17:00 +25°C° 0 mm 5 m/s 665 mmHg 22%
    18:00 +23°C° 0 mm 6 m/s 665 mmHg 23%
    19:00 +22°C° 0 mm 5 m/s 666 mmHg 26%
    20:00 +21°C° 0 mm 4 m/s 666 mmHg 29%
    21:00 +20°C° 0 mm 3 m/s 666 mmHg 32%
    22:00 +19°C° 0 mm 3 m/s 666 mmHg 38%
    23:00 +18°C° 0 mm 3 m/s 666 mmHg 43%

    Amanhã, 23 Maio, Quinta-feira

    Tempo Temperatura Precipitação Vento Pressão Humidade
    00:00 +18°C° 0 mm 3 m/s 666 mmHg 49%
    01:00 +17°C° 0 mm 2 m/s 666 mmHg 52%
    02:00 +17°C° 0 mm 2 m/s 665 mmHg 54%
    03:00 +16°C° 0 mm 2 m/s 665 mmHg 57%
    04:00 +17°C° 0 mm 2 m/s 665 mmHg 56%
    05:00 +17°C° 0 mm 2 m/s 666 mmHg 55%
    06:00 +17°C° 0 mm 2 m/s 666 mmHg 54%
    07:00 +19°C° 0 mm 2 m/s 666 mmHg 51%
    08:00 +20°C° 0 mm 2 m/s 667 mmHg 48%
    09:00 +22°C° 0 mm 3 m/s 667 mmHg 45%
    10:00 +24°C° 0 mm 3 m/s 667 mmHg 38%
    11:00 +25°C° 0 mm 3 m/s 667 mmHg 32%
    12:00 +26°C° 0 mm 3 m/s 667 mmHg 26%
    13:00 +27°C° 0 mm 3 m/s 667 mmHg 24%
    14:00 +27°C° 0 mm 4 m/s 667 mmHg 23%
    15:00 +28°C° 0 mm 4 m/s 666 mmHg 22%
    16:00 +27°C° 0 mm 4 m/s 666 mmHg 23%
    17:00 +27°C° 0 mm 3 m/s 666 mmHg 25%
    18:00 +26°C° 0 mm 3 m/s 666 mmHg 26%
    19:00 +25°C° 0 mm 2 m/s 666 mmHg 28%
    20:00 +24°C° 0 mm 2 m/s 666 mmHg 30%
    21:00 +23°C° 0 mm 2 m/s 666 mmHg 32%
    22:00 +23°C° 0 mm 2 m/s 666 mmHg 36%
    23:00 +21°C° 0 mm 2 m/s 665 mmHg 40%

    Depois de amanhã, 24 Maio, Sexta-feira

    Tempo Temperatura Precipitação Vento Pressão Humidade
    00:00 +21°C° 0 mm 2 m/s 665 mmHg 44%
    01:00 +20°C° 0.5 mm 2 m/s 664 mmHg 51%
    02:00 +20°C° 0.5 mm 3 m/s 664 mmHg 58%
    03:00 +19°C° 0.5 mm 3 m/s 664 mmHg 64%
    04:00 +19°C° 0.1 mm 3 m/s 664 mmHg 65%
    05:00 +19°C° 0.1 mm 4 m/s 664 mmHg 65%
    06:00 +20°C° 0.1 mm 5 m/s 664 mmHg 65%
    07:00 +21°C° 0 mm 5 m/s 664 mmHg 56%
    08:00 +23°C° 0 mm 5 m/s 665 mmHg 47%
    09:00 +26°C° 0 mm 6 m/s 665 mmHg 38%
    10:00 +27°C° 0 mm 5 m/s 665 mmHg 34%
    11:00 +28°C° 0 mm 5 m/s 665 mmHg 30%
    12:00 +29°C° 0 mm 5 m/s 665 mmHg 25%
    13:00 +28°C° 0.1 mm 4 m/s 664 mmHg 26%
    14:00 +28°C° 0.1 mm 4 m/s 663 mmHg 26%
    15:00 +27°C° 0.1 mm 4 m/s 662 mmHg 26%
    16:00 +27°C° 0 mm 4 m/s 662 mmHg 27%
    17:00 +27°C° 0 mm 4 m/s 662 mmHg 28%
    18:00 +27°C° 0 mm 5 m/s 662 mmHg 28%
    19:00 +26°C° 0.1 mm 4 m/s 662 mmHg 33%
    20:00 +25°C° 0.1 mm 4 m/s 662 mmHg 37%
    21:00 +23°C° 0.1 mm 4 m/s 662 mmHg 42%
    22:00 +22°C° 0.1 mm 5 m/s 662 mmHg 46%
    23:00 +21°C° 0.1 mm 7 m/s 662 mmHg 51%

    25 Maio, Sábado

    Tempo Temperatura Precipitação Vento Pressão Humidade
    00:00 +20°C° 0.1 mm 8 m/s 662 mmHg 56%
    01:00 +18°C° 0.2 mm 8 m/s 662 mmHg 59%
    02:00 +18°C° 0.2 mm 8 m/s 661 mmHg 61%
    03:00 +18°C° 0.2 mm 7 m/s 661 mmHg 64%
    04:00 +19°C° 0.1 mm 6 m/s 661 mmHg 64%
    05:00 +19°C° 0.1 mm 5 m/s 661 mmHg 64%
    06:00 +19°C° 0.1 mm 4 m/s 661 mmHg 64%
    07:00 +20°C° 0 mm 5 m/s 662 mmHg 60%
    08:00 +21°C° 0 mm 5 m/s 662 mmHg 56%
    09:00 +21°C° 0 mm 5 m/s 662 mmHg 52%
    10:00 +21°C° 0.8 mm 5 m/s 662 mmHg 54%
    11:00 +21°C° 0.8 mm 6 m/s 662 mmHg 55%
    12:00 +20°C° 0.8 mm 6 m/s 661 mmHg 57%
    13:00 +20°C° 1.4 mm 5 m/s 661 mmHg 55%
    14:00 +20°C° 1.4 mm 4 m/s 661 mmHg 54%
    15:00 +20°C° 1.4 mm 3 m/s 661 mmHg 52%
    16:00 +20°C° 0 mm 3 m/s 661 mmHg 51%
    17:00 +20°C° 0 mm 2 m/s 661 mmHg 50%
    18:00 +20°C° 0 mm 2 m/s 661 mmHg 49%
    19:00 +19°C° 0.4 mm 3 m/s 661 mmHg 59%
    20:00 +17°C° 0.4 mm 4 m/s 661 mmHg 68%
    21:00 +15°C° 0.4 mm 5 m/s 661 mmHg 77%
    22:00 +15°C° 0 mm 5 m/s 661 mmHg 80%
    23:00 +14°C° 0 mm 5 m/s 661 mmHg 82%

    26 Maio, Domingo

    Tempo Temperatura Precipitação Vento Pressão Humidade
    00:00 +14°C° 0 mm 5 m/s 660 mmHg 85%
    01:00 +13°C° 0 mm 5 m/s 660 mmHg 84%
    02:00 +13°C° 0 mm 6 m/s 660 mmHg 84%
    03:00 +13°C° 0 mm 6 m/s 659 mmHg 83%
    04:00 +12°C° 0 mm 7 m/s 659 mmHg 83%
    05:00 +11°C° 0 mm 7 m/s 659 mmHg 83%
    06:00 +11°C° 0 mm 7 m/s 659 mmHg 83%
    07:00 +12°C° 0 mm 8 m/s 660 mmHg 80%
    08:00 +12°C° 0 mm 8 m/s 660 mmHg 78%
    09:00 +12°C° 0 mm 8 m/s 660 mmHg 75%
    10:00 +13°C° 0.1 mm 8 m/s 660 mmHg 72%
    11:00 +15°C° 0.1 mm 9 m/s 660 mmHg 68%
    12:00 +15°C° 0.1 mm 9 m/s 660 mmHg 65%
    13:00 +15°C° 0.1 mm 9 m/s 660 mmHg 65%
    14:00 +14°C° 0.1 mm 10 m/s 660 mmHg 65%
    15:00 +14°C° 0.1 mm 10 m/s 660 mmHg 65%
    16:00 +14°C° 0 mm 10 m/s 660 mmHg 67%
    17:00 +13°C° 0 mm 10 m/s 660 mmHg 68%
    18:00 +12°C° 0 mm 10 m/s 660 mmHg 70%
    19:00 +12°C° 0.1 mm 10 m/s 660 mmHg 73%
    20:00 +11°C° 0.1 mm 10 m/s 660 mmHg 75%
    21:00 +11°C° 0.1 mm 10 m/s 661 mmHg 78%
    22:00 +9°C° 1.9 mm 10 m/s 660 mmHg 81%
    23:00 +9°C° 1.9 mm 11 m/s 660 mmHg 85%

    27 Maio, Segunda-feira

    Tempo Temperatura Precipitação Vento Pressão Humidade
    00:00 +9°C° 1.9 mm 11 m/s 659 mmHg 88%
    01:00 +9°C° 0.8 mm 12 m/s 659 mmHg 87%
    02:00 +9°C° 0.8 mm 12 m/s 659 mmHg 86%
    03:00 +9°C° 0.8 mm 12 m/s 659 mmHg 85%
    04:00 +9°C° 0.1 mm 12 m/s 659 mmHg 83%
    05:00 +9°C° 0.1 mm 12 m/s 659 mmHg 81%
    06:00 +9°C° 0.1 mm 13 m/s 659 mmHg 78%
    07:00 +9°C° 0 mm 12 m/s 660 mmHg 75%
    08:00 +10°C° 0 mm 12 m/s 660 mmHg 71%
    09:00 +10°C° 0 mm 12 m/s 660 mmHg 67%
    10:00 +12°C° 0 mm 12 m/s 660 mmHg 64%
    11:00 +13°C° 0 mm 12 m/s 661 mmHg 61%
    12:00 +14°C° 0 mm 12 m/s 661 mmHg 58%
    13:00 +14°C° 0.1 mm 12 m/s 661 mmHg 63%
    14:00 +13°C° 0.1 mm 12 m/s 661 mmHg 67%
    15:00 +12°C° 0.1 mm 12 m/s 660 mmHg 72%
    16:00 +12°C° 0 mm 12 m/s 661 mmHg 71%
    17:00 +12°C° 0 mm 12 m/s 661 mmHg 70%
    18:00 +12°C° 0 mm 12 m/s 661 mmHg 69%
    19:00 +11°C° 0 mm 11 m/s 662 mmHg 72%
    20:00 +11°C° 0 mm 11 m/s 662 mmHg 75%
    21:00 +9°C° 0 mm 10 m/s 662 mmHg 78%
    22:00 +9°C° 0 mm 10 m/s 662 mmHg 79%
    23:00 +10°C° 0 mm 9 m/s 662 mmHg 81%
    Mostrar mais